Terminal Aerodrome Forecast
Issued by NWS

Home | Current Version | Previous Version | Text Only | Print | Product List | Glossary On
Versions: 1 2 3 4 5 6 7 8 9 10 11 12 13 14 15 16 17 18 19 20 21 22 23 24 25 26 27 28 29 30 31 32 33 34 35 36 37
000
FTAK31 PAFA 311129
TAFAQT
TAF
PAQT 311129Z 3112/0112 25030KT 3SM -SN BLSN BR OVC040
      TEMPO 3112/3115 1SM -SHSN BLSN BR
     FM311800 24018KT 2SM BLSN SCT025 BKN070
     FM312200 24011KT P6SM FEW025
     FM010400 23005KT P6SM FEW025=

USA.gov is the U.S. government's official web portal to all federal, state and local government web resources and services.